www.pogodaiklimat.ru

АРХИВ ПОГОДЫ в Нью-Йорк Сити

Время (UTC), дата Ветер
(напр.,м/с)
 
Видим.   Явления Облачность Т
(С)
Тd
(С)
f
(%)
Тe
(С)
Тes
(С)
Комфортность

P
(гПа)

Po
(гПа)
Тmin
(С)
Tmax
(С)
R
(мм)
SD
(см)
06:51 24.03 З  16 км    ясно  +3.9  -12.2  30  +2  +2    1021.6  1016.5         
07:51 24.03 З  16 км    ясно  +3.9  -11.7  31  +1  +1    1021.8  1016.9         
08:51 24.03 нст  16 км    ясно  +3.9  -11.7  31  +2  +2    1022.0  1017.2         
09:51 24.03 нст  16 км    ясно  +3.3  -11.1  34  +1  +1    1022.3  1017.2         
10:51 24.03 нст  16 км    ясно  +3.3  -11.1  34  -0  -0    1022.8  1017.9  +3.3  +4.4     
11:51 24.03   16 км    ясно  +5.0  -11.1  30  +5  +7    1023.0  1017.9         
12:51 24.03 нст  16 км    ясно  +6.1  -11.7  27  +4  +8    1022.5  1017.6         
13:51 24.03 З  3
{7} 
16 км    ясно  +8.3  -11.1  24  +6  +11    1022.3  1017.2         
14:51 24.03 З  16 км    ясно  +11.1  -11.7  19  +10  +20  опасность
простуды 
1021.3  1016.2         
15:51 24.03     16 км    ясно  +12.8  -13.3  15  +13  +30  опасность
простуды 
1020.3  1015.5         
16:51 24.03     16 км    ясно  +14.4  -13.3  13  +15  +33  опасность
простуды 
1019.2  1014.2  +3.3  +14.4     
17:51 24.03 нст  16 км    ясно  +14.4  -11.1  16  +14  +25  опасность
простуды 
1018.4  1013.5         
18:51 24.03     16 км    ясно  +15.6  -8.9  18  +16  +29  опасность
простуды 
1017.0  1012.2         
19:51 24.03 З  16 км    ясно  +15.6  -8.9  18  +15  +20    1016.2  1011.2         
20:51 24.03 нст  16 км    ясно  +15.6  -7.8  19  +16  +20    1016.2  1011.2         
21:51 24.03 нст  3
{8} 
16 км    ясно  +15.0  -7.8  20  +15  +15    1016.5  1011.5         
22:51 24.03 нст  16 км    ясно  +14.4  -7.8  21  +14  +14    1016.8  1011.8  +14.4  +15.6     
23:51 24.03   16 км    ясно  +14.4  -7.8  21  +15  +15    1016.9  1011.8         
00:51 25.03 нст  16 км    ясно  +13.9  -7.2  22  +14  +14    1017.6  1012.5         
01:51 25.03 нст  16 км    10/0 3000 м
[средняя] 
+13.9  -6.7  23  +14  +14    1017.2  1012.2         
02:51 25.03     16 км    2/0 3000 м
[средняя] 
+13.3  -6.1  25  +13  +13    1017.4  1012.5         
03:51 25.03 нст  16 км    10/0 3000 м
[средняя] 
+13.9  -6.7  23  +14  +14    1016.8  1011.8         
04:51 25.03 нст  16 км    10/2 1950 м
[средняя] 
+13.3  -6.1  25  +13  +13    1016.7  1011.8  +12.8  +15.0     
05:51 25.03 нст  16 км    10/0 2550 м
[средняя] 
+13.3  -1.7  35  +13  +13    1016.2  1011.5         
06:51 25.03 нст  16 км    10/0 3000 м
[средняя] 
+12.8  -0.6  40  +12  +12    1015.9  1011.2         
07:51 25.03 СЗ  16 км    10/0 2550 м
[средняя] 
+12.2  0.0  43  +11  +11    1015.6  1010.8         
08:51 25.03 нст  16 км    10/0 2100 м
[средняя] 
+11.7  -5.0  31  +11  +11    1015.6  1010.8         
09:51 25.03 С  16 км    2/0 3600 м
[средняя] 
+10.6  -4.4  35  +10  +10    1015.9  1011.2         
10:51 25.03 нст  16 км    10/0 2100 м
[средняя] 
+11.1  -3.9  35  +11  +11    1016.8  1011.8  +10.6  +13.3     
11:51 25.03 нст  16 км    10/0 2100 м
[средняя] 
+10.6  -3.3  38  +9  +9    1017.1  1012.2         
12:51 25.03 нст  16 км    10/0 2100 м
[средняя] 
+10.0  -2.8  41  +8  +9    1018.0  1013.2         
13:51 25.03 С  16 км    10/10 1950 м  +9.4  -2.8  42  +7  +7    1018.6  1013.5         
14:51 25.03 С  16 км    10/10 1950 м  +8.9  -2.2  46  +7  +7    1018.5  1013.5         
15:51 25.03   16 км    10/10 1950 м  +10.0  -2.2  42  +10  +10    1018.6  1013.5         
16:51 25.03     16 км    10/8 1800 м
[средняя] 
+10.6  -2.2  41  +11  +12    1018.1  1013.2  +8.9  +11.1     
17:51 25.03 нст  16 км    10/5 1950 м
[средняя] 
+10.0  -2.2  42  +8  +9    1017.6  1012.5         
18:51 25.03   16 км    10/10 1800 м  +10.6  -2.8  39  +11  +11    1017.7  1012.8         
19:51 25.03 З  16 км    10/10 1950 м  +10.0  -2.2  42  +9  +9    1017.6  1012.5         
20:51 25.03   16 км    10/0 2100 м
[средняя] 
+10.0  -3.9  37  +10  +11    1016.7  1011.8         
21:51 25.03   16 км    10/8 1950 м
[средняя] 
+9.4  -3.3  41  +9  +9    1017.2  1012.2         
22:51 25.03     16 км    10/10 1500 м  +8.9  -2.8  44  +9  +9    1018.2  1013.2  +8.9  +11.1     
23:51 25.03   16 км    10/10 1950 м  +8.3  -4.4  40  +8  +8    1017.7  1012.8         
00:51 26.03 СЗ  16 км    10/0 2400 м
[средняя] 
+8.9  -6.1  34  +7  +7    1018.1  1013.2         
01:51 26.03     16 км    10/0 2400 м
[средняя] 
+8.3  -15.6  17  +9  +9    1018.6  1013.9         
02:51 26.03 нст  16 км    10/0 2700 м
[средняя] 
+7.2  -15.6  18  +5  +5    1019.0  1014.2         
03:51 26.03 нст  16 км    10/0 3300 м
[средняя] 
+5.6  -16.7  18  +3  +3    1019.8  1014.9         
04:51 26.03 С  16 км    ясно  +3.9  -15.6  23  +1  +1    1020.1  1015.2  +3.9  +8.9     
05:51 26.03 С  16 км    ясно  +3.3  -14.4  26  -0  -0    1020.2  1015.2         

 

Местоположение метеостанции Central Park: широта 40.7833 долгота -73.9667 высота над уровнем моря 47 м.

В архиве по умолчанию представлена погода в Нью-Йорк Сити за последние 1-2 суток. Обновление информации о фактической погоде в базе происходит ежечасно! Архивные данные за месяц целиком и за предыдущие месяцы Вы можете получить, выбрав интересующий диапазон дат из раскрывающегося списка и нажав кнопку "Ввод!".

Внимание! Архив погоды МЕТАР в базе сайта в настоящее время начинается c 1 января 2011 г. Нет смысла пытаться выбрать более раннюю дату.

Внимание! Время в таблицах - всемирное. Для получения местного времени необходимо прибавить поправку, которая в Нью-Йорк Сити равна -5 ч.

Ветер - указаны скорость ветра в м/с и направление, откуда дует ветер: С - северный, СВ - северо-восточный, В - восточный, ЮВ - юго-восточный, Ю - южный, ЮЗ - юго-западный, З - западный, СЗ - северо-западный.
Видимость - горизонтальная дальность видимости в метрах или километрах. При видимости от 1 до 10 км при отсутствии осадков обычно наблюдается дымка, при ухудшении видимости до 1 км и менее - туман. В сухую погоду видимость может ухудшаться дымом, пылью или мглою.
Атмосферные явления - указаны явления, наблюдавшиеся в указанный момент времени.
Облачность - указаны через наклонную черту верхняя и нижняя облачность в баллах и высота нижней границы облаков в метрах. Внимание: облачность, как и прочие метеорологические величины в США измеряются автоматическими метеостанциями. Указанные значения в баллах носят условный характер и показывают процент времени, в течение которого, в среднем, лазерный луч высотомера отражался от облаков обратно.
T - Температура воздуха - температура, измеренная на высоте 2 м над землей.
Td - Температура точки росы - температура, при понижении до которой содержащийся в воздухе водяной пар достигнет насыщения.
f - Относительная влажность воздуха - влажноcть воздуха, измеренная на высоте 2 м над землей.
Te - Эффективная температура - температура, которую ощущает одетый по сезону человек в тени. Характеристика душности погоды. При расчете учитывается влияние влажности воздуха и скорости ветра на теплоощущения человека.
Tes - Эффективная температура на солнце - температура, которую ощущает человек, с поправкой на солнечный нагрев. Характеристика знойности погоды. Зависит от высоты солнца над горизонтом, облачности и скорости ветра. Ночью, в пасмурную погоду, а также при ветре 12 м/с и более поправка равна нулю.
P - Атмосферное давление - приведенное к уровню моря атмосферное давление.
Po - Атмосферное давление - измеренное на уровне метеостанции атмосферное давление.
Tmin - Минимальная температура - минимум температуры воздуха на высоте 2 м над землей.
Tmax - Максимальная температура - максимум температуры воздуха на высоте 2 м над землей.
R - Количество осадков - Количество выпавших осадков за 3 или 6 часов, мм.
SD - Снежный покров - Высота снежного покрова, см.